EW5282 Weather Reports


time (UTC)temp
C
wind
direction
speed
KPH
gust
KPH
rain 1hr
cm
rain 24hr
cm
rain mn
cm
humidity
%
barometer
mb
20260507201539 12 86 1.6 6.4 0.00 0.20 0.20 79 1011.1
20260507201024 12 172 1.6 4.8 0.00 0.20 0.20 78 1011.5
20260507200520 12 101 0.0 4.8 0.00 0.20 0.20 78 1011.6
20260507200037 12 206 0.0 8.0 0.00 0.20 0.20 79 1011.6
20260507195519 12 88 1.6 9.7 0.00 0.20 0.20 81 1011.4
20260507195019 12 198 1.6 9.7 0.00 0.20 0.20 81 1011.5
20260507194537 12 0 0.0 4.8 0.05 0.20 0.20 82 1011.5
20260507194020 12 153 0.0 4.8 0.08 0.20 0.20 84 1011.6
20260507193523 12 0 1.6 4.8 0.10 0.20 0.20 85 1011.6
20260507193038 12 0 0.0 3.2 0.10 0.20 0.20 84 1011.5
20260507192520 12 88 0.0 6.4 0.10 0.20 0.20 81 1011.7
20260507192019 12 0 0.0 6.4 0.10 0.20 0.20 82 1011.8
20260507191542 12 30 0.0 8.0 0.10 0.20 0.20 81 1011.9
20260507191016 12 13 3.2 8.0 0.10 0.20 0.20 81 1011.9
20260507190519 11 200 0.0 8.0 0.10 0.20 0.20 81 1011.9
20260507190040 11 292 1.6 6.4 0.10 0.20 0.20 82 1011.9
20260507185518 11 0 0.0 3.2 0.10 0.20 0.20 82 1012.0
20260507185019 11 0 0.0 3.2 0.08 0.18 0.18 84 1011.9
20260507184538 12 0 0.0 3.2 0.05 0.15 0.15 78 1012.0
20260507184020 12 0 0.0 4.8 0.03 0.13 0.13 75 1011.9
20260507183518 12 0 1.6 4.8 0.00 0.10 0.10 72 1012.1
20260507183043 12 0 1.6 4.8 0.00 0.10 0.10 71 1012.3
20260507182517 12 74 1.6 9.7 0.00 0.10 0.10 70 1011.8
20260507182021 12 0 3.2 9.7 0.00 0.10 0.10 69 1011.7
20260507181537 12 41 1.6 8.0 0.00 0.10 0.10 70 1011.8
20260507181021 12 78 0.0 8.0 0.00 0.10 0.10 72 1012.1
20260507180520 12 0 1.6 6.4 0.00 0.10 0.10 71 1012.0
20260507180048 12 128 1.6 6.4 0.00 0.10 0.10 76 1012.0
20260507175523 12 59 1.6 6.4 0.00 0.10 0.10 74 1012.0
20260507175019 12 0 0.0 8.0 0.00 0.10 0.10 73 1012.2
20260507174543 13 148 0.0 8.0 0.00 0.10 0.10 75 1012.1
20260507174021 13 156 0.0 8.0 0.00 0.10 0.10 74 1012.2
20260507173523 13 121 1.6 8.0 0.00 0.10 0.10 75 1012.1
20260507173044 13 5 0.0 9.7 0.00 0.10 0.10 76 1012.3
20260507172521 13 146 0.0 9.7 0.00 0.10 0.10 73 1012.2
20260507172021 13 50 1.6 9.7 0.00 0.10 0.10 73 1012.3
20260507171545 13 55 0.0 6.4 0.00 0.10 0.10 74 1012.5
20260507171021 13 109 3.2 8.0 0.00 0.10 0.10 73 1012.2
20260507170522 13 131 1.6 8.0 0.00 0.10 0.10 74 1012.5
20260507170038 13 0 0.0 8.0 0.00 0.10 0.10 75 1012.5
20260507165519 13 150 1.6 8.0 0.00 0.10 0.10 74 1012.5
20260507165020 13 242 0.0 6.4 0.00 0.10 0.10 76 1012.4
20260507164536 13 202 0.0 4.8 0.00 0.10 0.10 73 1012.6
20260507164019 13 314 1.6 4.8 0.00 0.10 0.10 73 1012.4
20260507163519 13 0 1.6 8.0 0.00 0.10 0.10 76 1012.5
20260507163042 13 0 0.0 8.0 0.00 0.10 0.10 75 1012.4
20260507162522 13 24 0.0 4.8 0.00 0.10 0.10 77 1012.7
20260507162020 13 263 1.6 4.8 0.00 0.10 0.10 78 1012.7
20260507161541 13 92 0.0 6.4 0.00 0.10 0.10 78 1012.8
20260507161021 13 46 1.6 6.4 0.00 0.10 0.10 78 1012.8
20260507160520 13 0 1.6 6.4 0.00 0.10 0.10 79 1013.0
20260507160041 13 0 0.0 8.0 0.00 0.10 0.10 79 1013.1
20260507155518 13 88 1.6 8.0 0.00 0.10 0.10 79 1013.1
20260507155024 13 60 0.0 6.4 0.00 0.10 0.10 80 1013.1
20260507154540 13 0 1.6 6.4 0.00 0.10 0.10 79 1013.1
20260507154021 13 94 1.6 8.0 0.00 0.10 0.10 81 1013.0
20260507153525 12 109 0.0 8.0 0.00 0.10 0.10 81 1013.0
20260507153037 12 19 3.2 8.0 0.03 0.10 0.10 81 1013.1
20260507152522 12 53 0.0 11.3 0.03 0.10 0.10 84 1013.2
20260507152021 12 0 1.6 11.3 0.03 0.10 0.10 83 1013.2
20260507151544 12 0 0.0 8.0 0.03 0.10 0.10 82 1013.1
20260507151021 12 79 0.0 8.0 0.03 0.10 0.10 83 1013.0
20260507150521 12 0 1.6 11.3 0.03 0.10 0.10 83 1012.8
20260507150043 12 0 0.0 11.3 0.03 0.10 0.10 84 1013.0
20260507145519 12 53 1.6 11.3 0.03 0.18 0.10 86 1013.0
20260507145017 12 0 0.0 4.8 0.03 0.18 0.10 86 1012.8
20260507144607 12 31 1.6 4.8 0.03 0.18 0.10 85 1013.0
20260507144018 12 0 0.0 12.9 0.03 0.18 0.10 85 1013.4
20260507143519 12 0 1.6 12.9 0.03 0.18 0.10 84 1013.1
20260507143040 12 45 1.6 4.8 0.00 0.15 0.08 85 1013.1
20260507142519 12 0 0.0 3.2 0.00 0.15 0.08 85 1013.1
20260507142024 12 77 0.0 3.2 0.00 0.15 0.08 86 1013.2
20260507141540 12 19 0.0 6.4 0.00 0.15 0.08 85 1013.4
20260507141018 12 0 0.0 6.4 0.00 0.15 0.08 84 1013.4
20260507140520 12 0 0.0 4.8 0.00 0.15 0.08 84 1013.4
20260507140037 12 0 0.0 6.4 0.00 0.15 0.08 84 1013.5
20260507135518 12 174 0.0 6.4 0.00 0.23 0.08 84 1013.2
20260507135018 12 51 1.6 9.7 0.00 0.23 0.08 83 1013.2
20260507134540 12 90 3.2 9.7 0.00 0.23 0.08 84 1013.4
20260507134018 12 139 1.6 9.7 0.00 0.23 0.08 84 1013.3
20260507133518 12 0 1.6 16.1 0.00 0.23 0.08 85 1013.3
20260507133042 12 161 1.6 16.1 0.00 0.23 0.08 85 1013.2
20260507132518 12 80 1.6 4.8 0.00 0.23 0.08 85 1013.3
20260507132017 12 70 0.0 11.3 0.00 0.23 0.08 86 1013.4
20260507131541 12 0 0.0 11.3 0.00 0.23 0.08 84 1013.4
20260507131018 12 92 1.6 11.3 0.00 0.23 0.08 84 1013.8
20260507130518 12 0 0.0 6.4 0.00 0.23 0.08 85 1013.4
20260507130037 12 0 0.0 6.4 0.00 0.23 0.08 85 1013.3
20260507125519 12 239 0.0 6.4 0.00 0.23 0.08 85 1013.4
20260507125019 12 77 1.6 6.4 0.00 0.23 0.08 85 1013.2
20260507124537 12 45 0.0 4.8 0.00 0.23 0.08 86 1013.1
20260507124024 12 159 0.0 4.8 0.00 0.23 0.08 86 1012.9
20260507123519 12 0 0.0 11.3 0.00 0.23 0.08 85 1013.1
20260507123037 12 0 3.2 11.3 0.00 0.23 0.08 85 1013.2
20260507122519 12 36 1.6 8.0 0.00 0.23 0.08 86 1013.2
20260507122019 12 0 0.0 3.2 0.00 0.23 0.08 86 1013.1
20260507121535 12 0 0.0 6.4 0.00 0.23 0.08 86 1013.1
20260507121019 12 87 0.0 6.4 0.00 0.23 0.08 86 1013.2
20260507120518 12 56 1.6 6.4 0.00 0.23 0.08 86 1012.9
20260507120042 12 146 0.0 3.2 0.00 0.23 0.08 86 1012.9
20260507115519 12 0 0.0 4.8 0.00 0.23 0.08 86 1013.1
20260507115019 12 71 0.0 6.4 0.00 0.23 0.08 86 1013.1
20260507114542 12 11 0.0 9.7 0.00 0.23 0.08 85 1013.1
20260507114021 12 72 1.6 9.7 0.00 0.23 0.08 86 1012.9
20260507113518 12 104 3.2 9.7 0.00 0.23 0.08 86 1012.7
20260507113040 12 0 1.6 9.7 0.00 0.23 0.08 87 1012.9
20260507112525 12 0 0.0 8.0 0.00 0.23 0.08 87 1012.8
20260507112021 12 90 1.6 8.0 0.00 0.23 0.08 87 1012.7
20260507111544 12 51 0.0 4.8 0.00 0.23 0.08 88 1012.5
20260507111018 12 10 0.0 4.8 0.00 0.23 0.08 88 1012.2
20260507110519 12 0 0.0 4.8 0.00 0.23 0.08 88 1012.1
20260507110037 12 59 0.0 6.4 0.00 0.23 0.08 88 1012.0
20260507105522 12 38 1.6 9.7 0.00 0.23 0.08 88 1012.0
20260507105019 12 0 0.0 9.7 0.00 0.23 0.08 88 1011.9
20260507104543 12 0 0.0 6.4 0.00 0.23 0.08 88 1012.0
20260507104019 12 0 1.6 6.4 0.00 0.23 0.08 88 1012.1
20260507103519 12 24 0.0 4.8 0.00 0.23 0.08 88 1012.0
20260507103042 12 0 0.0 6.4 0.00 0.23 0.08 88 1012.2
20260507102519 12 0 0.0 6.4 0.00 0.23 0.08 88 1012.3
20260507102021 12 0 0.0 6.4 0.00 0.23 0.08 88 1012.0
20260507101546 12 75 0.0 6.4 0.00 0.23 0.08 88 1012.0
20260507101018 12 48 1.6 6.4 0.00 0.23 0.08 88 1012.0
20260507100518 12 50 1.6 6.4 0.00 0.23 0.08 88 1012.2
20260507100043 12 197 0.0 4.8 0.00 0.23 0.08 88 1012.4
20260507095519 12 0 1.6 8.0 0.00 0.23 0.08 88 1012.1
20260507095018 12 48 3.2 11.3 0.00 0.23 0.08 89 1011.7
20260507094546 12 0 1.6 16.1 0.00 0.23 0.08 89 1011.5
20260507094019 12 61 4.8 16.1 0.00 0.23 0.08 89 1011.5
20260507093519 13 102 6.4 16.1 0.00 0.23 0.08 90 1011.5
20260507093043 13 61 3.2 9.7 0.00 0.23 0.08 91 1012.0
20260507092521 13 80 1.6 6.4 0.00 0.23 0.08 91 1012.1
20260507092022 13 41 1.6 6.4 0.00 0.23 0.08 91 1012.1
20260507091539 13 67 1.6 11.3 0.00 0.23 0.08 91 1011.8
20260507091023 13 146 1.6 11.3 0.00 0.23 0.08 91 1011.6
20260507090523 13 65 1.6 14.5 0.00 0.23 0.08 91 1011.9
20260507090042 13 94 1.6 14.5 0.00 0.23 0.08 91 1011.7
20260507085519 13 106 3.2 12.9 0.00 0.23 0.08 91 1011.5
20260507085019 13 88 3.2 12.9 0.00 0.23 0.08 91 1011.4
20260507084544 13 73 3.2 12.9 0.00 0.23 0.08 91 1011.5
20260507084018 13 85 1.6 9.7 0.00 0.23 0.08 91 1011.5
20260507083519 13 52 1.6 9.7 0.00 0.23 0.08 90 1011.8
20260507083040 14 0 1.6 8.0 0.00 0.23 0.08 91 1011.7
20260507082521 14 67 0.0 8.0 0.00 0.23 0.08 90 1011.6
20260507082018 14 119 0.0 6.4 0.00 0.23 0.08 90 1011.6
20260507081540 14 0 0.0 6.4 0.00 0.23 0.08 90 1011.4
20260507081020 14 89 0.0 6.4 0.00 0.23 0.08 90 1011.1
20260507080522 14 120 0.0 8.0 0.00 0.23 0.08 90 1011.3
20260507080040 15 0 1.6 8.0 0.00 0.23 0.08 90 1011.3
20260507075520 15 75 1.6 4.8 0.00 0.23 0.08 90 1011.1
20260507075022 15 0 0.0 4.8 0.00 0.23 0.08 90 1011.4
20260507074538 15 0 1.6 6.4 0.00 0.23 0.08 90 1011.5
20260507074020 15 275 1.6 6.4 0.00 0.23 0.08 91 1011.4
20260507073519 15 19 0.0 6.4 0.00 0.23 0.08 91 1011.1
20260507073035 16 0 0.0 6.4 0.00 0.23 0.08 91 1010.9
20260507072522 16 91 1.6 16.1 0.00 0.23 0.08 92 1010.9
20260507072018 16 33 1.6 16.1 0.00 0.23 0.08 92 1010.7
20260507071542 17 82 3.2 16.1 0.00 0.23 0.08 92 1010.8
20260507071019 17 11 3.2 11.3 0.00 0.23 0.08 93 1010.6
20260507070523 17 9 0.0 3.2 0.00 0.23 0.08 93 1010.4
20260507070044 17 0 0.0 3.2 0.00 0.23 0.08 93 1010.1
20260507065518 17 0 0.0 3.2 0.00 0.23 0.08 93 1010.1
20260507065019 17 0 0.0 3.2 0.00 0.23 0.08 93 1009.9
20260507064542 17 107 0.0 3.2 0.00 0.23 0.08 93 1010.1
20260507064022 17 219 0.0 1.6 0.00 0.23 0.08 93 1010.4
20260507063521 17 0 0.0 1.6 0.00 0.23 0.08 93 1010.4
20260507063046 17 0 0.0 1.6 0.03 0.23 0.08 92 1010.6
20260507062518 17 0 0.0 1.6 0.03 0.23 0.08 92 1010.3
20260507062018 17 0 0.0 1.6 0.03 0.23 0.08 92 1010.4
20260507061538 17 0 0.0 3.2 0.03 0.23 0.08 92 1010.7
20260507061021 17 0 0.0 3.2 0.03 0.23 0.08 92 1010.6
20260507060519 17 0 0.0 1.6 0.03 0.23 0.08 92 1010.6
20260507060049 17 0 0.0 3.2 0.03 0.23 0.08 92 1010.3
20260507055522 17 0 0.0 3.2 0.03 0.23 0.08 92 1010.3
20260507055021 17 0 0.0 1.6 0.03 0.23 0.08 92 1010.4
20260507054545 17 0 0.0 1.6 0.03 0.23 0.08 91 1009.9
20260507054019 18 0 0.0 1.6 0.03 0.23 0.08 92 1009.7
20260507053519 18 350 0.0 3.2 0.03 0.23 0.08 91 1009.6
20260507053047 18 0 0.0 3.2 0.00 0.20 0.05 91 1009.4
20260507052521 18 0 0.0 1.6 0.05 0.20 0.05 91 1009.7
20260507052019 18 0 0.0 3.2 0.05 0.20 0.05 91 1009.6
20260507051540 18 0 0.0 3.2 0.05 0.20 0.05 91 1009.7
20260507051020 18 0 0.0 1.6 0.05 0.20 0.05 91 1009.7
20260507050520 18 0 0.0 4.8 0.05 0.20 0.05 91 1009.6
20260507050041 18 0 0.0 4.8 0.05 0.20 0.05 90 1009.3
20260507045519 18 226 0.0 4.8 0.05 0.20 0.05 90 1009.6
20260507045018 18 0 0.0 4.8 0.05 0.20 0.05 90 1009.9
20260507044553 18 227 0.0 4.8 0.05 0.20 0.05 90 1010.0
20260507044018 18 352 1.6 11.3 0.05 0.20 0.05 90 1010.1
20260507043521 18 0 1.6 11.3 0.05 0.20 0.05 89 1010.3
20260507043041 18 0 0.0 8.0 0.05 0.20 0.05 89 1010.3
20260507042518 18 301 1.6 12.9 0.00 0.15 0.00 89 1010.2
20260507042018 18 175 3.2 12.9 0.00 0.15 0.00 88 1010.4
20260507041541 18 252 3.2 11.3 0.00 0.15 0.00 88 1010.5
20260507041020 18 309 0.0 6.4 0.00 0.15 0.00 87 1010.8
20260507040520 18 215 1.6 6.4 0.00 0.15 0.00 87 1010.8
20260507040040 18 0 0.0 3.2 0.00 0.15 0.00 87 1010.6
20260507035519 18 0 0.0 3.2 0.00 0.15 0.15 87 1010.4
20260507035021 18 223 0.0 4.8 0.00 0.15 0.15 87 1010.5
20260507034543 18 0 0.0 4.8 0.00 0.15 0.15 87 1010.7
20260507034020 18 0 1.6 4.8 0.00 0.15 0.15 87 1010.6
20260507033518 18 266 0.0 4.8 0.00 0.15 0.15 86 1010.7
20260507033040 18 0 0.0 4.8 0.00 0.15 0.15 86 1010.7
20260507032519 18 195 0.0 4.8 0.00 0.15 0.15 86 1010.8
20260507032020 18 0 0.0 3.2 0.00 0.15 0.15 86 1011.0
20260507031536 19 0 0.0 1.6 0.00 0.15 0.15 86 1010.9
20260507031019 19 0 0.0 4.8 0.00 0.15 0.15 86 1011.0
20260507030525 19 0 0.0 4.8 0.00 0.15 0.15 86 1010.7
20260507030042 19 0 1.6 6.4 0.00 0.15 0.15 86 1010.8
20260507025520 19 201 1.6 9.7 0.00 0.15 0.15 86 1010.6
20260507025019 19 0 1.6 9.7 0.00 0.15 0.15 86 1010.9
20260507024544 19 0 0.0 4.8 0.00 0.15 0.15 85 1010.9
20260507024021 19 232 0.0 4.8 0.00 0.15 0.15 85 1010.6
20260507023522 19 254 1.6 11.3 0.00 0.15 0.15 85 1010.4
20260507023040 19 285 0.0 11.3 0.00 0.15 0.15 85 1010.4
20260507022520 19 267 1.6 11.3 0.00 0.15 0.15 85 1010.3
20260507022019 19 0 0.0 4.8 0.00 0.15 0.15 85 1009.7
20260507021540 19 182 1.6 8.0 0.00 0.15 0.15 85 1009.8
20260507021020 19 0 1.6 8.0 0.00 0.15 0.15 84 1009.9
20260507020520 19 106 1.6 8.0 0.00 0.15 0.15 84 1009.7
20260507020049 19 281 1.6 4.8 0.00 0.15 0.15 84 1009.9
20260507015525 19 209 0.0 4.8 0.00 0.15 0.15 83 1009.9
20260507015021 19 0 0.0 4.8 0.00 0.15 0.15 83 1010.0
20260507014543 19 178 0.0 3.2 0.00 0.15 0.15 83 1010.3
20260507014023 19 0 0.0 6.4 0.00 0.15 0.15 83 1010.3
20260507013520 19 0 0.0 6.4 0.00 0.15 0.15 83 1010.3
20260507013054 20 299 1.6 6.4 0.00 0.15 0.15 82 1010.4
20260507012519 20 244 0.0 4.8 0.00 0.15 0.15 82 1010.3
20260507012021 20 0 0.0 9.7 0.00 0.15 0.15 82 1010.3
20260507011543 20 265 0.0 9.7 0.00 0.15 0.15 82 1010.4
20260507011021 20 0 0.0 6.4 0.00 0.15 0.15 82 1010.5
20260507010520 20 182 1.6 6.4 0.00 0.15 0.15 82 1010.6
20260507010044 20 0 0.0 9.7 0.00 0.15 0.15 81 1010.5
20260507005521 20 293 3.2 9.7 0.00 0.15 0.15 81 1010.4
20260507005018 20 0 0.0 16.1 0.00 0.15 0.15 81 1010.4
20260507004536 20 0 1.6 16.1 0.00 0.15 0.15 81 1010.4
20260507004021 20 324 3.2 16.1 0.00 0.15 0.15 81 1010.4
20260507003521 20 309 0.0 3.2 0.00 0.15 0.15 80 1010.2
20260507003044 20 0 0.0 4.8 0.00 0.15 0.15 80 1010.1
20260507002521 20 0 0.0 4.8 0.00 0.15 0.15 80 1010.2
20260507002019 20 252 0.0 4.8 0.00 0.15 0.15 80 1010.3
20260507001542 20 132 0.0 8.0 0.00 0.15 0.15 80 1010.4
20260507001020 20 219 0.0 9.7 0.00 0.15 0.15 79 1010.6
20260507000522 20 212 3.2 9.7 0.00 0.15 0.15 79 1010.3
20260507000045 20 0 1.6 12.9 0.00 0.15 0.15 79 1010.2
20260506235520 20 240 3.2 12.9 0.00 0.15 0.15 79 1010.2
20260506235020 21 177 4.8 12.9 0.00 0.15 0.15 79 1010.0
20260506234540 21 219 1.6 11.3 0.00 0.15 0.15 79 1010.3
20260506234023 21 140 0.0 6.4 0.00 0.15 0.15 78 1010.1
20260506233520 21 352 0.0 8.0 0.00 0.15 0.15 78 1010.3
20260506233037 21 211 1.6 9.7 0.00 0.15 0.15 78 1010.3
20260506232520 21 311 1.6 11.3 0.00 0.15 0.15 78 1010.3
20260506232022 21 278 1.6 11.3 0.00 0.15 0.15 78 1010.3
20260506231543 21 221 4.8 11.3 0.00 0.15 0.15 77 1010.0
20260506231020 21 112 1.6 12.9 0.00 0.15 0.15 77 1010.0
20260506230524 21 0 3.2 12.9 0.00 0.15 0.15 77 1010.0
20260506230042 21 262 3.2 12.9 0.00 0.15 0.15 77 1010.0
20260506225521 21 169 3.2 19.3 0.00 0.15 0.15 77 1009.9
20260506225020 21 148 3.2 19.3 0.00 0.15 0.15 77 1009.9
20260506224554 21 205 4.8 19.3 0.00 0.15 0.15 77 1009.8
20260506224020 21 211 6.4 14.5 0.00 0.15 0.15 77 1009.8
20260506223519 21 154 3.2 11.3 0.00 0.15 0.15 77 1009.8
20260506223041 21 225 3.2 11.3 0.00 0.15 0.15 76 1009.9
20260506222524 21 196 3.2 16.1 0.00 0.15 0.15 76 1009.9
20260506222021 21 252 3.2 16.1 0.00 0.15 0.15 76 1009.9
20260506221537 21 109 3.2 16.1 0.00 0.15 0.15 76 1009.9
20260506221020 21 184 6.4 17.7 0.00 0.15 0.15 76 1009.8
20260506220519 21 235 4.8 17.7 0.00 0.15 0.15 76 1009.9
20260506220041 21 194 3.2 19.3 0.00 0.15 0.15 77 1009.8
20260506215521 21 163 4.8 19.3 0.00 0.15 0.15 77 1009.8
20260506215018 21 109 4.8 19.3 0.00 0.15 0.15 77 1010.0
20260506214553 21 0 4.8 16.1 0.00 0.15 0.15 77 1010.0
20260506214020 21 194 1.6 17.7 0.00 0.15 0.15 77 1010.0
20260506213519 21 187 3.2 17.7 0.00 0.15 0.15 77 1009.9
20260506213045 21 229 3.2 17.7 0.00 0.15 0.15 77 1009.8
20260506212522 21 231 6.4 17.7 0.00 0.15 0.15 76 1009.7
20260506212021 21 263 4.8 16.1 0.00 0.15 0.15 77 1009.6
20260506211543 21 315 3.2 16.1 0.00 0.15 0.15 76 1009.8
20260506211021 21 323 3.2 20.9 0.00 0.15 0.15 76 1009.8
20260506210521 21 238 6.4 20.9 0.00 0.15 0.15 76 1009.9
20260506210041 21 265 0.0 14.5 0.00 0.15 0.15 79 1009.9
20260506205520 21 239 0.0 14.5 0.00 0.15 0.15 77 1010.0
20260506205023 21 252 4.8 14.5 0.00 0.15 0.15 77 1010.1
20260506204541 21 284 4.8 12.9 0.00 0.15 0.15 77 1010.1
20260506204020 21 234 1.6 8.0 0.00 0.15 0.15 77 1010.0
20260506203520 21 180 1.6 8.0 0.00 0.15 0.15 77 1010.0
20260506203037 21 140 1.6 8.0 0.00 0.15 0.15 77 1010.0
20260506202520 21 157 3.2 9.7 0.00 0.15 0.15 76 1010.0
20260506202021 21 298 0.0 11.3 0.00 0.15 0.15 77 1009.9